Total_Precipitation_Accumulation
0.00 0.00 0.01 0.01 0.01 0.01 0.03 0.06 0.09 0.12 0.10 0.12 0.23 0.49 0.68 0.79 1.01 1.05 1.10 1.25 1.36 1.48 1.79 2.17 2.46 3.02 3.60 3.91 4.30 4.46 4.43 4.27 4.00 3.56 3.19 2.90 2.66 2.50 2.26 2.11 2.01 1.92 1.86 1.94
0.01 0.03 0.02 0.01 0.01 0.02 0.04 0.07 0.09 0.14 0.13 0.17 0.32 0.54 0.79 0.80 0.89 0.94 0.87 0.95 1.13 1.47 1.71 2.19 2.43 2.64 3.12 3.61 4.04 4.31 4.45 4.28 3.88 3.41 3.09 2.89 2.82 2.49 2.19 2.14 2.10 1.96 2.00 1.99
0.01 0.02 0.02 0.01 0.02 0.04 0.06 0.07 0.09 0.10 0.12 0.23 0.34 0.72 0.97 0.86 0.82 0.87 0.87 0.94 1.10 1.56 2.01 2.22 2.34 2.47 2.72 3.14 3.43 3.52 3.65 3.59 3.37 3.30 3.17 2.99 2.92 2.57 2.39 2.38 2.33 2.18 2.17 2.12
0.01 0.01 0.02 0.03 0.04 0.04 0.08 0.06 0.05 0.06 0.14 0.33 0.37 0.82 1.24 1.07 0.91 0.95 1.02 0.99 1.28 1.61 1.62 1.70 1.95 2.24 2.46 2.70 3.01 3.23 3.25 3.17 3.02 3.03 2.92 2.72 2.47 2.34 2.43 2.62 2.53 2.27 2.06 1.90
0.03 0.03 0.03 0.04 0.04 0.04 0.06 0.05 0.06 0.09 0.14 0.30 0.38 0.60 1.08 1.11 1.15 1.03 1.01 1.12 1.35 1.37 1.32 1.35 1.55 1.87 1.99 2.25 2.51 2.79 3.02 3.08 2.95 2.89 2.75 2.67 2.49 2.39 2.37 2.30 2.19 1.98 1.76 1.53
0.04 0.04 0.04 0.03 0.03 0.04 0.05 0.06 0.12 0.18 0.30 0.63 0.49 0.51 0.93 1.07 0.97 0.86 0.92 0.97 1.12 1.11 1.14 1.26 1.40 1.65 1.74 1.84 1.94 2.07 2.32 2.55 2.62 2.58 2.49 2.40 2.26 2.15 2.01 1.79 1.62 1.48 1.36 1.15
0.09 0.10 0.08 0.05 0.05 0.06 0.06 0.09 0.39 0.74 0.97 1.02 0.55 0.59 1.03 0.85 0.65 0.66 0.82 0.85 0.81 0.81 0.86 1.06 1.17 1.25 1.35 1.43 1.48 1.59 1.82 2.10 2.17 2.09 2.06 2.04 1.92 1.83 1.70 1.57 1.41 1.27 1.12 0.93
0.16 0.21 0.12 0.07 0.07 0.07 0.08 0.09 0.34 0.61 0.74 0.81 0.66 1.00 1.43 0.92 0.68 0.72 0.74 0.73 0.70 0.68 0.64 0.75 0.95 1.10 1.12 1.14 1.22 1.34 1.58 1.75 1.78 1.67 1.71 1.76 1.68 1.64 1.52 1.48 1.26 1.08 0.97 0.91
0.11 0.11 0.07 0.07 0.10 0.10 0.09 0.08 0.14 0.28 0.36 0.58 0.80 1.09 1.14 0.68 0.60 0.70 0.71 0.68 0.70 0.69 0.59 0.59 0.67 0.82 0.88 0.91 0.97 1.05 1.31 1.50 1.57 1.50 1.54 1.57 1.57 1.48 1.32 1.22 1.10 0.94 0.92 0.91
0.04 0.06 0.08 0.07 0.08 0.10 0.10 0.11 0.16 0.22 0.34 0.55 0.75 1.03 1.17 0.79 0.63 0.47 0.43 0.46 0.41 0.40 0.38 0.36 0.40 0.46 0.56 0.69 0.83 0.92 1.01 1.17 1.26 1.25 1.26 1.28 1.37 1.31 1.19 1.13 1.01 0.86 0.78 0.80
0.04 0.04 0.07 0.08 0.11 0.13 0.13 0.11 0.13 0.17 0.20 0.37 0.72 0.92 0.69 0.55 0.49 0.45 0.40 0.44 0.37 0.30 0.28 0.30 0.34 0.42 0.50 0.57 0.69 0.81 0.87 0.97 1.05 1.06 1.10 1.10 1.10 1.14 1.10 1.00 0.88 0.82 0.79 0.77
0.04 0.04 0.06 0.13 0.18 0.16 0.14 0.11 0.13 0.17 0.16 0.22 0.37 0.54 0.38 0.37 0.40 0.38 0.38 0.42 0.42 0.41 0.37 0.34 0.35 0.45 0.50 0.57 0.62 0.66 0.71 0.80 0.94 1.07 1.23 1.28 1.20 1.15 1.06 0.92 0.83 0.79 0.77 0.76
0.05 0.05 0.10 0.28 0.40 0.26 0.16 0.12 0.12 0.14 0.11 0.17 0.32 0.50 0.32 0.24 0.31 0.43 0.61 0.75 0.59 0.45 0.40 0.36 0.38 0.41 0.44 0.52 0.59 0.58 0.61 0.70 0.83 1.04 1.36 1.49 1.42 1.27 1.09 0.90 0.76 0.72 0.71 0.73
0.08 0.06 0.10 0.29 0.42 0.36 0.26 0.17 0.13 0.11 0.13 0.16 0.21 0.40 0.37 0.28 0.29 0.36 0.45 0.44 0.54 0.51 0.41 0.42 0.41 0.47 0.49 0.50 0.57 0.59 0.62 0.66 0.78 0.93 1.14 1.24 1.16 1.05 0.94 0.78 0.64 0.60 0.62 0.67
0.11 0.08 0.06 0.11 0.21 0.23 0.23 0.22 0.18 0.14 0.12 0.21 0.23 0.29 0.34 0.29 0.35 0.41 0.53 0.55 0.58 0.47 0.36 0.41 0.41 0.44 0.50 0.49 0.56 0.53 0.48 0.46 0.54 0.70 0.78 0.87 0.84 0.75 0.70 0.68 0.64 0.61 0.66 0.68
0.17 0.17 0.13 0.13 0.17 0.22 0.26 0.25 0.18 0.13 0.11 0.14 0.19 0.25 0.28 0.29 0.38 0.40 0.41 0.38 0.39 0.34 0.26 0.28 0.39 0.45 0.41 0.37 0.38 0.33 0.32 0.37 0.45 0.54 0.61 0.73 0.82 0.77 0.68 0.66 0.67 0.65 0.70 0.74
0.22 0.26 0.24 0.20 0.19 0.21 0.31 0.31 0.23 0.14 0.13 0.18 0.25 0.30 0.28 0.25 0.29 0.34 0.35 0.34 0.37 0.35 0.23 0.20 0.26 0.34 0.32 0.29 0.26 0.29 0.32 0.39 0.47 0.56 0.65 0.75 0.83 0.83 0.78 0.72 0.75 0.75 0.82 0.87
0.38 0.38 0.31 0.26 0.34 0.44 0.32 0.27 0.26 0.26 0.24 0.24 0.32 0.29 0.31 0.33 0.38 0.40 0.42 0.38 0.32 0.28 0.23 0.18 0.19 0.23 0.26 0.29 0.29 0.33 0.39 0.49 0.56 0.64 0.74 0.84 0.90 0.89 0.88 0.90 0.95 1.00 1.03 1.03
0.32 0.46 0.43 0.41 0.47 0.43 0.38 0.27 0.29 0.35 0.47 0.45 0.50 0.46 0.41 0.42 0.43 0.42 0.38 0.35 0.34 0.27 0.25 0.24 0.22 0.27 0.33 0.36 0.36 0.45 0.54 0.64 0.73 0.79 0.86 0.94 1.03 1.07 1.09 1.12 1.13 1.17 1.21 1.15
0.32 0.45 0.56 0.51 0.59 0.57 0.50 0.38 0.35 0.46 0.83 0.66 0.59 0.56 0.50 0.50 0.53 0.50 0.46 0.44 0.39 0.32 0.30 0.30 0.30 0.37 0.44 0.51 0.55 0.64 0.70 0.77 0.87 0.93 1.07 1.23 1.36 1.38 1.36 1.43 1.42 1.36 1.30 1.23
0.56 0.63 0.67 0.64 0.64 0.65 0.54 0.50 0.50 0.83 1.07 0.77 0.61 0.57 0.60 0.68 0.65 0.59 0.49 0.48 0.43 0.36 0.36 0.34 0.34 0.41 0.55 0.65 0.74 0.85 0.97 1.06 1.01 1.07 1.22 1.44 1.59 1.66 1.70 1.77 1.75 1.68 1.63 1.61
0.72 0.79 0.77 0.76 0.85 0.90 0.66 0.64 0.90 1.04 0.85 0.85 0.80 0.74 0.71 0.68 0.60 0.51 0.47 0.46 0.42 0.39 0.43 0.42 0.41 0.51 0.67 0.79 0.86 0.97 1.04 1.03 1.05 1.12 1.26 1.40 1.55 1.60 1.68 1.86 1.91 1.90 1.88 1.82
0.70 0.81 0.86 0.90 0.96 0.85 0.70 0.77 0.87 0.90 0.91 0.88 0.85 0.79 0.71 0.68 0.59 0.48 0.43 0.41 0.40 0.39 0.42 0.43 0.48 0.65 0.81 0.95 1.04 1.11 1.04 1.09 1.13 1.20 1.33 1.47 1.55 1.62 1.70 1.75 1.75 1.77 1.83 1.82
0.75 0.70 0.85 1.00 1.03 0.94 0.83 0.73 0.66 0.70 0.75 0.75 0.72 0.73 0.73 0.73 0.67 0.56 0.45 0.37 0.38 0.38 0.35 0.38 0.44 0.55 0.67 0.79 0.90 1.04 1.10 1.17 1.23 1.30 1.36 1.45 1.57 1.59 1.62 1.74 1.83 1.89 1.97 2.04
0.85 0.77 0.91 1.11 1.02 0.86 0.93 0.93 0.83 0.83 0.87 0.84 0.73 0.70 0.72 0.70 0.67 0.57 0.49 0.43 0.38 0.37 0.35 0.38 0.45 0.52 0.59 0.66 0.74 0.83 0.91 1.05 1.15 1.23 1.29 1.34 1.41 1.50 1.58 1.65 1.72 1.72 1.78 1.77
0.79 0.84 1.01 1.18 1.08 1.02 1.03 0.95 0.85 0.87 0.84 0.87 0.88 0.85 0.68 0.58 0.61 0.57 0.51 0.43 0.41 0.40 0.40 0.43 0.45 0.48 0.53 0.60 0.73 0.80 0.89 1.04 1.19 1.29 1.32 1.28 1.28 1.34 1.41 1.46 1.45 1.40 1.33 1.30